カタログに戻る

DELTA 1 DEB

運用中SSO
NORAD 12198·DEBRIS·🇺🇸 United States

打ち上げ Mar 5, 1978 から Vandenberg Space Force Base

Loading…

次のパス (今後24時間)

TLE

最新Source: Space-Track

元期: Sep 14, 2026, 06:11 UTC

1 12198U 78026AP  26257.25811777  .00000267  00000-0  18778-3 0  9993
2 12198  99.1462 174.5499 0117755  24.5233 336.1472 14.03388215323669

AllMySatでDELTA 1 DEBをリアルタイム追跡

Download on the App Store